Back to catalog

CENTISPACE-1 S12

AliveNavigationLEO
NORAD 62581·PAYLOAD·🇨🇳 China

Launched Jan 13, 2025 from Yellow Sea Launch Area

Loading…

Next Passes (next 24 hours)

TLE

FreshSource: Space-Track

Epoch: Sep 14, 2026, 22:48 UTC

1 62581U 25007G   26257.95011170 -.00000056  00000-0  79850-4 0  9997
2 62581  54.9789 337.4402 0013455 308.1846  51.7898 13.80621189 87133

Track CENTISPACE-1 S12 in real time with AllMySat

Download on the App Store